Weather History for Ramona, CA

Change the Weather History Date:

Monday, November 21, 2011

  Actual Average Record
Temperature  
Mean Temperature 53 °F 54 °F  
Max Temperature 60 °F 69 °F 87 °F (2008)
Min Temperature 45 °F 38 °F 23 °F (1994)
Degree Days  
Heating Degree Days 12 11  
Month to date heating degree days 244 176  
Since 1 July heating degree days 343 295  
Cooling Degree Days 0 0  
Month to date cooling degree days 0 4  
Year to date cooling degree days 726 848  
Moisture  
Dew Point 43 °F    
Average Humidity 78    
Maximum Humidity 100    
Minimum Humidity 55    
Precipitation  
Precipitation 0.09 in 0.04 in 0.82 in (2004)
Month to date precipitation 3.25 0.86  
Year to date precipitation 13.37 13.48  
Since 1 July precipitation 3.99 2.15  
Snow  
Snow 0.00 in - - ()
Month to date snowfall 0.0  
Year to date snowfall 0.0  
Since 1 July snowfall 0.0  
Snow Depth 0.00 in    
Sea Level Pressure  
Sea Level Pressure 30.15 in    
Wind  
Wind Speed 3 mph (West)    
Max Wind Speed 14 mph    
Max Gust Speed 17 mph    
Visibility 5 miles    
Events Fog , Rain    
T = Trace of Precipitation, MM = Missing Value Source: NWS Daily Summary

Daily Weather History Graph

Daily Weather History Graph

Search for Another Location

Airport:

Trip Planner

Search our weather history database for the weather conditions in past years. The results will help you decide how hot, cold, wet, or windy it might be!

Date:

Astronomy

Nov. 21, 2011 Rise Set
Actual Time 6:23 AM PST 4:43 PM PST
Civil Twilight 5:57 AM PST 5:09 PM PST
Nautical Twilight 5:26 AM PST 5:39 PM PST
Astronomical Twilight 4:57 AM PST 6:09 PM PST
Moon 2:17 AM PST (11/21) 1:59 PM PST (11/21)
Length of Visible Light 11h 12m
Length of Day
10h 19m
Waning Crescent, 16% of the Moon is Illuminated
Nov 21
Waning Crescent
Nov 24
New
Dec 2
First Quarter
Dec 10
Full
Dec 17
Last Quarter

Hourly Weather History & Observations

Time (PST) Temp. Windchill Dew Point Humidity Pressure Visibility Wind Dir Wind Speed Gust Speed Precip Events Conditions
12:11 AM 48.2 °F - 48.2 °F 100% 29.99 in 2.0 mi WNW 4.6 mph - 0.03 in Rain Rain
12:18 AM 48.2 °F - 48.2 °F 100% 29.99 in 3.0 mi NW 5.8 mph - 0.04 in Rain Light Rain
12:35 AM 48.2 °F - 48.2 °F 100% 30.00 in 3.0 mi WNW 5.8 mph - 0.05 in Rain Light Rain
12:38 AM 48.2 °F - 48.2 °F 100% 30.00 in 1.8 mi WNW 3.5 mph - 0.05 in Rain Light Rain
12:47 AM 48.2 °F - 48.2 °F 100% 30.00 in 1.5 mi Calm Calm - 0.06 in Rain Light Rain
12:53 AM 48.9 °F - 48.9 °F 100% 29.99 in 2.0 mi Calm Calm - 0.07 in Rain Light Rain
1:01 AM 48.2 °F - 48.2 °F 100% 30.00 in 5.0 mi Calm Calm - 0.01 in Rain Light Rain
1:53 AM 48.9 °F - 48.9 °F 100% 29.99 in 10.0 mi Calm Calm - 0.02 in   Overcast
2:41 AM 48.2 °F - 48.2 °F 100% 30.02 in 10.0 mi Calm Calm - N/A   Overcast
2:53 AM 48.9 °F - 48.0 °F 97% 30.00 in 10.0 mi Calm Calm - N/A   Overcast
3:50 AM 48.2 °F - 48.2 °F 100% 30.04 in 2.5 mi Calm Calm - N/A   Overcast
3:53 AM 48.9 °F - 48.0 °F 97% 30.03 in 1.8 mi Calm Calm - N/A   Overcast
4:07 AM 46.4 °F - 46.4 °F 100% 30.04 in 0.2 mi Calm Calm - N/A Fog Fog
4:53 AM 46.9 °F - 46.9 °F 100% 30.04 in 0.2 mi Calm Calm - N/A Fog Fog
5:45 AM 46.4 °F 45.2 °F 46.4 °F 100% 30.08 in 0.2 mi West 3.5 mph - N/A Fog Fog
5:53 AM 45.0 °F - 45.0 °F 100% 30.08 in 0.2 mi Calm Calm - N/A Fog Fog
6:00 AM 46.4 °F - 44.6 °F 93% 30.09 in 0.5 mi Calm Calm - N/A Fog Fog
6:11 AM 46.4 °F - 46.4 °F 100% 30.09 in 1.2 mi Calm Calm - N/A   Overcast
6:16 AM 46.4 °F - 46.4 °F 100% 30.09 in 3.0 mi Calm Calm - N/A   Overcast
6:40 AM 44.6 °F - 44.6 °F 100% 30.10 in 10.0 mi Calm Calm - N/A   Mostly Cloudy
6:53 AM 45.0 °F 43.5 °F 45.0 °F 100% 30.11 in 10.0 mi South 3.5 mph - N/A   Mostly Cloudy
7:49 AM 48.2 °F - 48.2 °F 100% 30.14 in 10.0 mi Calm Calm - N/A   Overcast
7:53 AM 48.0 °F - 48.0 °F 100% 30.14 in 10.0 mi Calm Calm - N/A   Mostly Cloudy
8:53 AM 50.0 °F - 46.9 °F 89% 30.16 in 10.0 mi Calm Calm - N/A   Mostly Cloudy
9:53 AM 55.0 °F - 46.0 °F 72% 30.17 in 10.0 mi Calm Calm - N/A   Mostly Cloudy
10:53 AM 57.0 °F - 45.0 °F 64% 30.17 in 10.0 mi West 3.5 mph - N/A   Mostly Cloudy
11:53 AM 57.0 °F - 45.0 °F 64% 30.16 in 10.0 mi Variable 3.5 mph - N/A   Scattered Clouds
12:53 PM 57.0 °F - 45.0 °F 64% 30.15 in 10.0 mi WNW 9.2 mph - N/A   Scattered Clouds
1:53 PM 60.1 °F - 44.1 °F 55% 30.15 in 10.0 mi WNW 5.8 mph - N/A   Scattered Clouds
2:53 PM 57.9 °F - 45.0 °F 62% 30.16 in 10.0 mi West 11.5 mph - N/A   Scattered Clouds
3:53 PM 55.0 °F - 45.0 °F 69% 30.18 in 10.0 mi West 9.2 mph - N/A   Partly Cloudy
4:53 PM 48.0 °F - 43.0 °F 83% 30.20 in 10.0 mi West 6.9 mph - N/A   Scattered Clouds
5:53 PM 48.0 °F - 44.1 °F 86% 30.21 in 10.0 mi WNW 4.6 mph - N/A   Partly Cloudy
6:53 PM 44.1 °F - 42.1 °F 93% 30.23 in 10.0 mi Calm Calm - N/A   Clear
7:53 PM 39.9 °F - 39.0 °F 97% 30.23 in 9.0 mi Calm Calm - N/A   Clear
8:53 PM 41.0 °F - 41.0 °F 100% 30.23 in 5.0 mi Calm Calm - N/A   Clear
9:02 PM 39.2 °F - 37.4 °F 93% 30.23 in 0.8 mi Calm Calm - N/A   Mist
9:12 PM 37.4 °F - 37.4 °F 100% 30.23 in 0.2 mi Calm Calm - N/A Fog Fog
9:29 PM 39.2 °F - 37.4 °F 93% 30.23 in 1.2 mi Calm Calm - N/A   Mostly Cloudy
9:31 PM 39.2 °F - 37.4 °F 93% 30.24 in 5.0 mi Calm Calm - N/A   Mostly Cloudy
9:48 PM 37.4 °F - 37.4 °F 100% 30.24 in 8.0 mi Calm Calm - N/A   Partly Cloudy
9:53 PM 37.9 °F - 37.9 °F 100% 30.24 in 7.0 mi Calm Calm - N/A   Partly Cloudy
9:59 PM 37.4 °F - 37.4 °F 100% 30.24 in 1.5 mi Calm Calm - N/A   Partly Cloudy
10:01 PM 35.6 °F - 35.6 °F 100% 30.25 in 0.8 mi Calm Calm - N/A   Mist
10:22 PM 37.4 °F - 35.6 °F 93% 30.25 in 1.5 mi Calm Calm - N/A   Partly Cloudy
10:24 PM 37.4 °F - 35.6 °F 93% 30.25 in 5.0 mi Calm Calm - N/A   Partly Cloudy
10:44 PM 37.4 °F 34.9 °F 35.6 °F 93% 30.24 in 1.5 mi East 3.5 mph - N/A   Scattered Clouds
10:50 PM 35.6 °F - 35.6 °F 100% 30.25 in 0.8 mi Calm Calm - N/A   Mist
10:53 PM 35.1 °F - 35.1 °F 100% 30.25 in 1.0 mi Calm Calm - N/A   Mist
11:01 PM 35.6 °F - 35.6 °F 100% 30.25 in 0.5 mi Calm Calm - N/A Fog Fog
11:22 PM 33.8 °F - 33.8 °F 100% 30.25 in 0.2 mi Calm Calm - N/A Fog Fog
11:46 PM 33.8 °F - 33.8 °F 100% 30.25 in 0.8 mi Calm Calm - N/A   Mist
11:50 PM 35.6 °F - 33.8 °F 93% 30.24 in 1.2 mi Calm Calm - N/A   Mostly Cloudy
11:53 PM 34.0 °F - 34.0 °F 100% 30.25 in 3.0 mi Calm Calm - N/A   Mostly Cloudy
11:57 PM 33.8 °F - 33.8 °F 100% 30.25 in 1.8 mi Calm Calm - N/A   Mostly Cloudy